Regional Weather Roundup
Issued by NWS

Home | Current Version | Previous Version | Text Only | Print | Product List | Glossary Off
Versions: 1 2 3 4 5 6 7 8 9 10 11 12 13 14 15 16 17 18 19 20 21 22 23 24 25 26 27 28 29 30 31 32 33 34 35 36 37 38 39 40 41 42 43 44 45 46 47 48 49 50

000
ASUS44 KMEG 241700
RWRTN
TENNESSEE HOURLY STATE WEATHER ROUNDUP
NATIONAL WEATHER SERVICE MEMPHIS TN
1200 PM CDT FRI APR 24 2015

TNZ002-004-019-021-049-052-054-088>092-241800-
WEST TENNESSEE

CITY           SKY/WX    TMP DP  RH WIND       PRES   REMARKS
MEMPHIS INTL   CLOUDY    66  39  37 SE10      30.00F
NWS MEMPHIS      N/A     66 N/A N/A MISG        N/A
JACKSON        PTSUNNY   66  38  35 E8        30.02F
DYERSBURG      CLOUDY    64  34  32 E10       30.02F
UNION CITY     PTSUNNY   61  32  33 SE10      30.02F
PARIS          SUNNY     61  30  31 E8        30.06F
LEXINGTON      SUNNY     64  30  27 E7        30.04F
SAVANNAH       CLOUDY    68  32  26 VRB3      30.04F
$$

TNZ008-025-027-028-033-062-065-066-241800-
NORTH MIDDLE TENNESSEE

CITY           SKY/WX    TMP DP  RH WIND       PRES   REMARKS
NASHVILLE      PTSUNNY   63  22  20 CALM      30.09F
CLARKSVILLE    MOSUNNY   64  26  23 E6        30.08F
COOKEVILLE     SUNNY     63  30  29 SE5       30.07F
CROSSVILLE     SUNNY     61  19  19 N6        30.09F
$$

TNZ061-075-076-078-094-096-097-241800-
SOUTH MIDDLE TENNESSEE

CITY           SKY/WX    TMP DP  RH WIND       PRES   REMARKS
FAYETTEVILLE   SUNNY     64  34  32 S5        30.07F
TULLAHOMA      SUNNY     63  23  22 NE6       30.07F
WINCHESTER     SUNNY     66  30  26 SW6       30.06F
MCMINNVILLE      N/A     63  28  27 CALM      30.08F
COLUMBIA       SUNNY     63  32  31 NE6       30.06F
SHELBYVILLE    SUNNY     63  32  31 NE7       30.09F
$$

TNZ017-018-042-046-047-241800-
NORTHEAST TENNESSEE

CITY           SKY/WX    TMP DP  RH WIND       PRES   REMARKS
TRI CITIES     MOSUNNY   58  25  28 CALM      30.11F
ELIZABETHTON   SUNNY     55  25  30 SW7       30.10F
$$

TNZ012-013-036-069-073-074-241800-
CENTRAL EAST TENNESSEE

CITY           SKY/WX    TMP DP  RH WIND       PRES   REMARKS
KNOXVILLE      MOSUNNY   61  28  28 N7        30.09F
OAK RIDGE      SUNNY     61  24  24 SE5       30.11F
GATLINBURG     SUNNY     61  25  25 VRB6      30.10F
$$

TNZ083-085-099-241800-
SOUTHEAST TENNESSEE

CITY           SKY/WX    TMP DP  RH WIND       PRES   REMARKS
CHATTANOOGA    PTSUNNY   64  29  26 N6        30.08F
$$

SKY/WX REPORTED AS FAIR MEANS FEW OR NO CLOUDS BELOW
12 THOUSAND FEET.




USA.gov is the U.S. government's official web portal to all federal, state and local government web resources and services.